Time,TemperatureF,DewpointF,PressureIn,WindDirection,WindDirectionDegrees,WindSpeedMPH,WindSpeedGustMPH,Humidity,HourlyPrecipIn,Conditions,Clouds,dailyrainin,SolarRadiationWatts/m^2,SoftwareType,DateUTC
2013-11-17 00:04:00,55.1,30.0,30.21,NE,50,0.0,-999.0,38,0.00,,,0.00,0,WeatherHawk,2013-11-17 05:04:00,
2013-11-17 00:10:00,59.2,30.8,30.21,ESE,112,0.0,-999.0,34,0.00,,,0.00,0,WeatherHawk,2013-11-17 05:10:00,
2013-11-17 00:19:00,59.6,28.1,30.20,ESE,119,0.0,-999.0,30,0.00,,,0.00,0,WeatherHawk,2013-11-17 05:19:00,
2013-11-17 00:24:00,59.8,28.3,30.20,SSE,154,0.0,-999.0,30,0.00,,,0.00,0,WeatherHawk,2013-11-17 05:24:00,
2013-11-17 00:29:00,59.2,27.0,30.20,SE,128,0.0,-999.0,29,0.00,,,0.00,0,WeatherHawk,2013-11-17 05:29:00,
2013-11-17 00:34:00,60.0,27.7,30.19,SE,144,2.0,-999.0,29,0.00,,,0.00,0,WeatherHawk,2013-11-17 05:34:00,
2013-11-17 00:39:00,59.4,27.1,30.20,SSE,154,1.0,-999.0,29,0.00,,,0.00,0,WeatherHawk,2013-11-17 05:39:00,
2013-11-17 00:44:00,59.8,27.5,30.19,SE,146,0.0,-999.0,29,0.00,,,0.00,1,WeatherHawk,2013-11-17 05:44:00,
2013-11-17 00:49:00,58.9,26.7,30.20,South,186,0.0,-999.0,29,0.00,,,0.00,0,WeatherHawk,2013-11-17 05:49:00,
2013-11-17 00:54:00,59.9,27.6,30.19,SE,127,1.0,-999.0,29,0.00,,,0.00,0,WeatherHawk,2013-11-17 05:54:00,
2013-11-17 00:59:00,59.3,26.2,30.19,SE,145,0.0,-999.0,28,0.00,,,0.00,0,WeatherHawk,2013-11-17 05:59:00,
2013-11-17 01:04:00,59.6,25.6,30.19,South,175,0.0,-999.0,27,0.00,,,0.00,0,WeatherHawk,2013-11-17 06:04:00,
2013-11-17 01:09:00,59.6,25.6,30.20,South,173,3.0,-999.0,27,0.00,,,0.00,1,WeatherHawk,2013-11-17 06:09:00,
2013-11-17 01:14:00,59.0,25.9,30.19,South,173,0.0,-999.0,28,0.00,,,0.00,0,WeatherHawk,2013-11-17 06:14:00,
2013-11-17 01:19:00,59.6,25.6,30.19,SE,145,3.0,-999.0,27,0.00,,,0.00,0,WeatherHawk,2013-11-17 06:19:00,
2013-11-17 01:24:00,59.5,25.5,30.20,SSE,168,4.0,-999.0,27,0.00,,,0.00,0,WeatherHawk,2013-11-17 06:24:00,
2013-11-17 01:29:00,59.8,25.8,30.20,SW,234,3.0,-999.0,27,0.00,,,0.00,0,WeatherHawk,2013-11-17 06:29:00,
2013-11-17 01:34:00,59.3,24.4,30.21,SW,234,1.0,-999.0,26,0.00,,,0.00,0,WeatherHawk,2013-11-17 06:34:00,
2013-11-17 01:39:00,60.1,26.0,30.19,South,170,5.0,-999.0,27,0.00,,,0.00,1,WeatherHawk,2013-11-17 06:39:00,
2013-11-17 01:44:00,59.5,24.6,30.20,South,172,4.0,-999.0,26,0.00,,,0.00,0,WeatherHawk,2013-11-17 06:44:00,
2013-11-17 01:49:00,59.1,25.1,30.19,SSE,149,1.0,-999.0,27,0.00,,,0.00,0,WeatherHawk,2013-11-17 06:49:00,
2013-11-17 01:54:00,59.7,25.7,30.20,SE,146,4.0,-999.0,27,0.00,,,0.00,1,WeatherHawk,2013-11-17 06:54:00,
2013-11-17 01:59:00,60.2,24.2,30.19,SE,134,3.0,-999.0,25,0.00,,,0.00,2,WeatherHawk,2013-11-17 06:59:00,
2013-11-17 02:04:00,60.8,24.8,30.19,South,187,4.0,-999.0,25,0.00,,,0.00,1,WeatherHawk,2013-11-17 07:04:00,
2013-11-17 02:14:00,60.8,23.8,30.19,South,170,2.0,-999.0,24,0.00,,,0.00,0,WeatherHawk,2013-11-17 07:14:00,
2013-11-17 02:19:00,60.8,23.8,30.18,ESE,104,7.0,-999.0,24,0.00,,,0.00,0,WeatherHawk,2013-11-17 07:19:00,
2013-11-17 02:24:00,60.4,23.5,30.18,SSW,198,1.0,-999.0,24,0.00,,,0.00,0,WeatherHawk,2013-11-17 07:24:00,
2013-11-17 02:29:00,60.5,23.5,30.18,South,186,0.0,-999.0,24,0.00,,,0.00,0,WeatherHawk,2013-11-17 07:29:00,
2013-11-17 02:34:00,60.8,23.8,30.17,SSE,166,3.0,-999.0,24,0.00,,,0.00,0,WeatherHawk,2013-11-17 07:34:00,
2013-11-17 02:39:00,60.6,23.7,30.17,ESE,122,5.0,-999.0,24,0.00,,,0.00,0,WeatherHawk,2013-11-17 07:39:00,
2013-11-17 02:44:00,60.6,23.7,30.16,SE,139,6.0,-999.0,24,0.00,,,0.00,0,WeatherHawk,2013-11-17 07:44:00,
2013-11-17 02:49:00,60.7,23.7,30.16,ESE,119,5.0,-999.0,24,0.00,,,0.00,1,WeatherHawk,2013-11-17 07:49:00,
2013-11-17 02:54:00,60.9,23.9,30.16,SE,145,6.0,-999.0,24,0.00,,,0.00,1,WeatherHawk,2013-11-17 07:54:00,
2013-11-17 02:59:00,60.6,23.6,30.15,SSE,148,0.0,-999.0,24,0.00,,,0.00,1,WeatherHawk,2013-11-17 07:59:00,
2013-11-17 03:04:00,60.7,23.7,30.16,East,97,2.0,-999.0,24,0.00,,,0.00,0,WeatherHawk,2013-11-17 08:04:00,
2013-11-17 03:09:00,60.8,23.8,30.16,SE,134,2.0,-999.0,24,0.00,,,0.00,1,WeatherHawk,2013-11-17 08:09:00,
2013-11-17 03:14:00,60.7,23.7,30.16,SSE,161,3.0,-999.0,24,0.00,,,0.00,0,WeatherHawk,2013-11-17 08:14:00,
2013-11-17 03:19:00,60.8,23.8,30.17,South,188,0.0,-999.0,24,0.00,,,0.00,0,WeatherHawk,2013-11-17 08:19:00,
2013-11-17 03:24:00,60.5,23.5,30.17,SW,225,2.0,-999.0,24,0.00,,,0.00,0,WeatherHawk,2013-11-17 08:24:00,
2013-11-17 03:29:00,60.7,23.7,30.17,ESE,123,0.0,-999.0,24,0.00,,,0.00,0,WeatherHawk,2013-11-17 08:29:00,
2013-11-17 03:34:00,60.7,23.7,30.16,South,179,0.0,-999.0,24,0.00,,,0.00,0,WeatherHawk,2013-11-17 08:34:00,
2013-11-17 03:39:00,61.0,23.9,30.16,SSW,210,0.0,-999.0,24,0.00,,,0.00,1,WeatherHawk,2013-11-17 08:39:00,
2013-11-17 03:44:00,60.9,24.8,30.15,South,173,0.0,-999.0,25,0.00,,,0.00,1,WeatherHawk,2013-11-17 08:44:00,
2013-11-17 03:49:00,60.9,24.8,30.16,ESE,111,0.0,-999.0,25,0.00,,,0.00,1,WeatherHawk,2013-11-17 08:49:00,
2013-11-17 03:54:00,61.0,24.9,30.16,ESE,104,1.0,-999.0,25,0.00,,,0.00,0,WeatherHawk,2013-11-17 08:54:00,
2013-11-17 04:00:00,61.0,25.0,30.16,WSW,239,0.0,-999.0,25,0.00,,,0.00,0,WeatherHawk,2013-11-17 09:00:00,
2013-11-17 04:09:00,60.5,24.5,30.14,WSW,244,0.0,-999.0,25,0.00,,,0.00,0,WeatherHawk,2013-11-17 09:09:00,
2013-11-17 04:14:00,61.0,24.9,30.15,SSE,160,0.0,-999.0,25,0.00,,,0.00,0,WeatherHawk,2013-11-17 09:14:00,
2013-11-17 04:19:00,60.9,24.9,30.15,South,175,0.0,-999.0,25,0.00,,,0.00,0,WeatherHawk,2013-11-17 09:19:00,
2013-11-17 04:24:00,61.2,25.1,30.15,SE,130,4.0,-999.0,25,0.00,,,0.00,0,WeatherHawk,2013-11-17 09:24:00,
2013-11-17 04:29:00,60.8,24.8,30.15,SE,134,0.0,-999.0,25,0.00,,,0.00,0,WeatherHawk,2013-11-17 09:29:00,
2013-11-17 04:34:00,60.8,24.7,30.16,ESE,107,0.0,-999.0,25,0.00,,,0.00,0,WeatherHawk,2013-11-17 09:34:00,
2013-11-17 04:39:00,61.3,25.2,30.14,ESE,122,5.0,-999.0,25,0.00,,,0.00,0,WeatherHawk,2013-11-17 09:39:00,
2013-11-17 04:44:00,60.8,24.8,30.15,SE,145,0.0,-999.0,25,0.00,,,0.00,1,WeatherHawk,2013-11-17 09:44:00,
2013-11-17 04:49:00,61.1,25.0,30.14,SE,146,1.0,-999.0,25,0.00,,,0.00,0,WeatherHawk,2013-11-17 09:49:00,
2013-11-17 04:54:00,61.2,25.1,30.14,ESE,123,1.0,-999.0,25,0.00,,,0.00,1,WeatherHawk,2013-11-17 09:54:00,
2013-11-17 04:59:00,60.6,24.6,30.15,SE,141,2.0,-999.0,25,0.00,,,0.00,0,WeatherHawk,2013-11-17 09:59:00,
2013-11-17 05:04:00,61.2,24.1,30.15,ENE,76,3.0,-999.0,24,0.00,,,0.00,0,WeatherHawk,2013-11-17 10:04:00,
2013-11-17 05:09:00,61.3,24.2,30.14,SSE,163,2.0,-999.0,24,0.00,,,0.00,1,WeatherHawk,2013-11-17 10:09:00,
2013-11-17 05:14:00,61.0,24.0,30.14,South,181,1.0,-999.0,24,0.00,,,0.00,0,WeatherHawk,2013-11-17 10:14:00,
2013-11-17 05:19:00,61.3,24.2,30.14,ESE,111,5.0,-999.0,24,0.00,,,0.00,1,WeatherHawk,2013-11-17 10:19:00,
2013-11-17 05:24:00,61.2,24.1,30.15,South,176,4.0,-999.0,24,0.00,,,0.00,0,WeatherHawk,2013-11-17 10:24:00,
2013-11-17 05:29:00,61.2,24.1,30.14,SE,141,3.0,-999.0,24,0.00,,,0.00,1,WeatherHawk,2013-11-17 10:29:00,
2013-11-17 05:34:00,61.0,24.0,30.14,SSE,154,0.0,-999.0,24,0.00,,,0.00,0,WeatherHawk,2013-11-17 10:34:00,
2013-11-17 05:39:00,61.1,24.0,30.14,East,84,4.0,-999.0,24,0.00,,,0.00,0,WeatherHawk,2013-11-17 10:39:00,
2013-11-17 05:44:00,61.3,23.2,30.15,South,191,3.0,-999.0,23,0.00,,,0.00,0,WeatherHawk,2013-11-17 10:44:00,
2013-11-17 05:49:00,61.0,23.9,30.14,SE,134,2.0,-999.0,24,0.00,,,0.00,0,WeatherHawk,2013-11-17 10:49:00,
2013-11-17 05:54:00,61.0,23.9,30.14,SE,139,2.0,-999.0,24,0.00,,,0.00,0,WeatherHawk,2013-11-17 10:54:00,
2013-11-17 05:59:00,61.1,24.0,30.14,SE,141,4.0,-999.0,24,0.00,,,0.00,0,WeatherHawk,2013-11-17 10:59:00,
2013-11-17 06:04:00,60.9,23.9,30.13,SE,141,2.0,-999.0,24,0.00,,,0.00,1,WeatherHawk,2013-11-17 11:04:00,
2013-11-17 06:09:00,60.6,24.6,30.14,South,191,0.0,-999.0,25,0.00,,,0.00,0,WeatherHawk,2013-11-17 11:09:00,
2013-11-17 06:14:00,60.7,24.7,30.14,ESE,112,0.0,-999.0,25,0.00,,,0.00,1,WeatherHawk,2013-11-17 11:14:00,
2013-11-17 06:19:00,60.9,24.9,30.14,ESE,115,3.0,-999.0,25,0.00,,,0.00,1,WeatherHawk,2013-11-17 11:19:00,
2013-11-17 06:24:00,60.7,25.6,30.14,SE,124,0.0,-999.0,26,0.00,,,0.00,0,WeatherHawk,2013-11-17 11:24:00,
2013-11-17 06:29:00,60.8,24.7,30.14,South,169,1.0,-999.0,25,0.00,,,0.00,0,WeatherHawk,2013-11-17 11:29:00,
2013-11-17 06:34:00,61.1,25.1,30.13,South,174,1.0,-999.0,25,0.00,,,0.00,0,WeatherHawk,2013-11-17 11:34:00,
2013-11-17 06:39:00,61.0,25.9,30.14,ESE,114,4.0,-999.0,26,0.00,,,0.00,0,WeatherHawk,2013-11-17 11:39:00,
2013-11-17 06:44:00,60.7,25.6,30.13,SSE,161,0.0,-999.0,26,0.00,,,0.00,0,WeatherHawk,2013-11-17 11:44:00,
2013-11-17 06:49:00,60.8,25.7,30.13,SSE,162,1.0,-999.0,26,0.00,,,0.00,0,WeatherHawk,2013-11-17 11:49:00,
2013-11-17 06:54:00,61.1,25.9,30.14,SE,135,1.0,-999.0,26,0.00,,,0.00,0,WeatherHawk,2013-11-17 11:54:00,
2013-11-17 06:59:00,60.8,25.7,30.14,ESE,115,0.0,-999.0,26,0.00,,,0.00,1,WeatherHawk,2013-11-17 11:59:00,
2013-11-17 07:04:00,61.0,25.8,30.14,SE,137,0.0,-999.0,26,0.00,,,0.00,0,WeatherHawk,2013-11-17 12:04:00,
2013-11-17 07:09:00,61.2,26.1,30.13,South,178,1.0,-999.0,26,0.00,,,0.00,2,WeatherHawk,2013-11-17 12:09:00,
2013-11-17 07:14:00,61.1,25.9,30.14,SE,135,2.0,-999.0,26,0.00,,,0.00,0,WeatherHawk,2013-11-17 12:14:00,
2013-11-17 07:19:00,61.0,24.9,30.13,ESE,123,0.0,-999.0,25,0.00,,,0.00,1,WeatherHawk,2013-11-17 12:19:00,
2013-11-17 07:24:00,62.1,24.9,30.13,SSE,152,5.0,-999.0,24,0.00,,,0.00,3,WeatherHawk,2013-11-17 12:24:00,
2013-11-17 07:29:00,61.7,24.5,30.13,SSE,150,1.0,-999.0,24,0.00,,,0.00,7,WeatherHawk,2013-11-17 12:29:00,
2013-11-17 07:34:00,61.9,24.7,30.14,South,187,0.0,-999.0,24,0.00,,,0.00,11,WeatherHawk,2013-11-17 12:34:00,
2013-11-17 07:39:00,61.7,24.6,30.13,South,180,4.0,-999.0,24,0.00,,,0.00,21,WeatherHawk,2013-11-17 12:39:00,
2013-11-17 07:44:00,61.9,23.7,30.13,South,183,2.0,-999.0,23,0.00,,,0.00,17,WeatherHawk,2013-11-17 12:44:00,
2013-11-17 07:49:00,62.2,24.0,30.13,SE,143,2.0,-999.0,23,0.00,,,0.00,18,WeatherHawk,2013-11-17 12:49:00,
2013-11-17 07:54:00,62.4,24.2,30.13,SSE,162,2.0,-999.0,23,0.00,,,0.00,9,WeatherHawk,2013-11-17 12:54:00,
2013-11-17 07:59:00,62.4,24.1,30.14,SE,143,0.0,-999.0,23,0.00,,,0.00,15,WeatherHawk,2013-11-17 12:59:00,
2013-11-17 08:04:00,62.1,24.9,30.13,NNW,347,0.0,-999.0,24,0.00,,,0.00,10,WeatherHawk,2013-11-17 13:04:00,
2013-11-17 08:09:00,62.6,25.3,30.13,ESE,106,0.0,-999.0,24,0.00,,,0.00,14,WeatherHawk,2013-11-17 13:09:00,
2013-11-17 08:14:00,62.7,24.3,30.13,ESE,117,0.0,-999.0,23,0.00,,,0.00,16,WeatherHawk,2013-11-17 13:14:00,
2013-11-17 08:19:00,63.0,25.6,30.12,South,186,0.0,-999.0,24,0.00,,,0.00,20,WeatherHawk,2013-11-17 13:19:00,
2013-11-17 08:24:00,62.8,25.5,30.13,SE,139,0.0,-999.0,24,0.00,,,0.00,20,WeatherHawk,2013-11-17 13:24:00,
2013-11-17 08:29:00,62.8,25.5,30.12,SSE,166,0.0,-999.0,24,0.00,,,0.00,24,WeatherHawk,2013-11-17 13:29:00,
2013-11-17 08:34:00,62.3,26.0,30.12,SSE,158,0.0,-999.0,25,0.00,,,0.00,27,WeatherHawk,2013-11-17 13:34:00,
2013-11-17 08:39:00,63.1,24.7,30.12,SE,143,1.0,-999.0,23,0.00,,,0.00,22,WeatherHawk,2013-11-17 13:39:00,
2013-11-17 08:44:00,62.8,25.5,30.12,ENE,58,1.0,-999.0,24,0.00,,,0.00,18,WeatherHawk,2013-11-17 13:44:00,
2013-11-17 08:49:00,63.6,25.1,30.11,SE,138,4.0,-999.0,23,0.00,,,0.00,27,WeatherHawk,2013-11-17 13:49:00,
2013-11-17 08:54:00,63.2,23.7,30.12,South,187,1.0,-999.0,22,0.00,,,0.00,22,WeatherHawk,2013-11-17 13:54:00,
2013-11-17 08:59:00,63.2,24.8,30.12,SSE,165,1.0,-999.0,23,0.00,,,0.00,23,WeatherHawk,2013-11-17 13:59:00,
2013-11-17 09:04:00,63.1,24.7,30.13,WSW,237,1.0,-999.0,23,0.00,,,0.00,16,WeatherHawk,2013-11-17 14:04:00,
2013-11-17 09:09:00,63.2,25.9,30.12,SE,129,4.0,-999.0,24,0.00,,,0.00,19,WeatherHawk,2013-11-17 14:09:00,
2013-11-17 09:14:00,63.5,25.0,30.12,SSW,197,5.0,-999.0,23,0.00,,,0.00,28,WeatherHawk,2013-11-17 14:14:00,
2013-11-17 09:19:00,63.0,26.6,30.12,ESE,113,4.0,-999.0,25,0.00,,,0.00,21,WeatherHawk,2013-11-17 14:19:00,
2013-11-17 09:24:00,63.6,26.2,30.12,East,99,5.0,-999.0,24,0.00,,,0.00,21,WeatherHawk,2013-11-17 14:24:00,
2013-11-17 09:29:00,63.5,27.1,30.12,SSE,163,6.0,-999.0,25,0.00,,,0.00,24,WeatherHawk,2013-11-17 14:29:00,
2013-11-17 09:34:00,63.4,27.0,30.13,SSE,148,1.0,-999.0,25,0.00,,,0.00,35,WeatherHawk,2013-11-17 14:34:00,
2013-11-17 09:39:00,63.5,27.1,30.13,South,169,9.0,-999.0,25,0.00,,,0.00,48,WeatherHawk,2013-11-17 14:39:00,
2013-11-17 09:44:00,63.1,28.6,30.13,ESE,119,3.0,-999.0,27,0.00,,,0.00,37,WeatherHawk,2013-11-17 14:44:00,
2013-11-17 09:49:00,63.9,28.3,30.13,NE,37,9.0,-999.0,26,0.00,,,0.00,27,WeatherHawk,2013-11-17 14:49:00,
2013-11-17 09:59:00,63.6,28.1,30.12,ESE,123,6.0,-999.0,26,0.00,,,0.00,39,WeatherHawk,2013-11-17 14:59:00,
2013-11-17 10:04:00,63.4,28.8,30.12,SSE,164,2.0,-999.0,27,0.00,,,0.00,39,WeatherHawk,2013-11-17 15:04:00,
2013-11-17 10:09:00,63.3,28.7,30.13,SSE,147,4.0,-999.0,27,0.00,,,0.00,48,WeatherHawk,2013-11-17 15:09:00,
2013-11-17 10:19:00,63.3,29.6,30.12,ESE,121,5.0,-999.0,28,0.00,,,0.00,57,WeatherHawk,2013-11-17 15:19:00,
2013-11-17 10:24:00,63.7,30.0,30.12,ESE,115,6.0,-999.0,28,0.00,,,0.00,66,WeatherHawk,2013-11-17 15:24:00,
2013-11-17 10:29:00,63.6,29.0,30.12,South,186,5.0,-999.0,27,0.00,,,0.00,73,WeatherHawk,2013-11-17 15:29:00,
2013-11-17 10:34:00,63.8,29.2,30.13,SSE,147,7.0,-999.0,27,0.00,,,0.00,84,WeatherHawk,2013-11-17 15:34:00,
2013-11-17 10:39:00,64.0,28.5,30.13,South,174,5.0,-999.0,26,0.00,,,0.00,89,WeatherHawk,2013-11-17 15:39:00,
2013-11-17 10:44:00,63.9,29.2,30.13,South,171,6.0,-999.0,27,0.00,,,0.00,48,WeatherHawk,2013-11-17 15:44:00,
2013-11-17 10:49:00,63.6,29.0,30.13,SE,142,1.0,-999.0,27,0.00,,,0.00,38,WeatherHawk,2013-11-17 15:49:00,
2013-11-17 10:54:00,63.5,28.9,30.13,South,177,4.0,-999.0,27,0.00,,,0.00,28,WeatherHawk,2013-11-17 15:54:00,
2013-11-17 10:59:00,63.3,28.7,30.12,SSE,166,1.0,-999.0,27,0.00,,,0.00,66,WeatherHawk,2013-11-17 15:59:00,
2013-11-17 11:04:00,63.8,29.2,30.13,SSW,211,2.0,-999.0,27,0.00,,,0.00,80,WeatherHawk,2013-11-17 16:04:00,
2013-11-17 11:09:00,63.4,28.9,30.13,SE,141,0.0,-999.0,27,0.00,,,0.00,62,WeatherHawk,2013-11-17 16:09:00,
2013-11-17 11:14:00,63.7,30.0,30.13,South,179,6.0,-999.0,28,0.00,,,0.00,33,WeatherHawk,2013-11-17 16:14:00,
2013-11-17 11:19:00,63.2,29.6,30.12,SE,131,5.0,-999.0,28,0.00,,,0.00,36,WeatherHawk,2013-11-17 16:19:00,
2013-11-17 11:24:00,62.6,31.5,30.13,ESE,113,3.0,-999.0,31,0.00,,,0.00,34,WeatherHawk,2013-11-17 16:24:00,
2013-11-17 11:29:00,62.5,32.3,30.11,ESE,108,5.0,-999.0,32,0.00,,,0.00,49,WeatherHawk,2013-11-17 16:29:00,
2013-11-17 11:34:00,62.3,32.9,30.11,SE,145,6.0,-999.0,33,0.00,,,0.00,49,WeatherHawk,2013-11-17 16:34:00,
2013-11-17 11:39:00,61.9,33.2,30.11,SSE,166,3.0,-999.0,34,0.00,,,0.00,55,WeatherHawk,2013-11-17 16:39:00,
2013-11-17 11:44:00,61.9,33.2,30.10,SE,142,2.0,-999.0,34,0.00,,,0.00,80,WeatherHawk,2013-11-17 16:44:00,
2013-11-17 11:49:00,62.1,33.4,30.10,SW,225,1.0,-999.0,34,0.00,,,0.00,52,WeatherHawk,2013-11-17 16:49:00,
2013-11-17 11:54:00,62.1,33.4,30.10,SSE,164,1.0,-999.0,34,0.00,,,0.00,67,WeatherHawk,2013-11-17 16:54:00,
2013-11-17 11:59:00,62.0,34.1,30.09,South,169,0.0,-999.0,35,0.00,,,0.00,46,WeatherHawk,2013-11-17 16:59:00,
2013-11-17 12:04:00,62.3,33.6,30.09,ESE,108,0.0,-999.0,34,0.00,,,0.00,98,WeatherHawk,2013-11-17 17:04:00,
2013-11-17 12:09:00,62.3,32.9,30.08,South,173,4.0,-999.0,33,0.00,,,0.00,60,WeatherHawk,2013-11-17 17:09:00,
2013-11-17 12:14:00,62.6,33.1,30.08,South,191,0.0,-999.0,33,0.00,,,0.00,77,WeatherHawk,2013-11-17 17:14:00,
2013-11-17 12:19:00,62.5,33.0,30.06,SSE,155,0.0,-999.0,33,0.00,,,0.00,82,WeatherHawk,2013-11-17 17:19:00,
2013-11-17 12:24:00,62.6,32.3,30.06,SSE,148,2.0,-999.0,32,0.00,,,0.00,87,WeatherHawk,2013-11-17 17:24:00,
2013-11-17 12:29:00,62.3,33.6,30.06,South,174,0.0,-999.0,34,0.00,,,0.00,75,WeatherHawk,2013-11-17 17:29:00,
2013-11-17 12:34:00,62.3,33.6,30.06,SW,214,0.0,-999.0,34,0.04,,,0.04,52,WeatherHawk,2013-11-17 17:34:00,
2013-11-17 12:39:00,62.3,34.3,30.06,SSE,165,0.0,-999.0,35,0.04,,,0.04,46,WeatherHawk,2013-11-17 17:39:00,
2013-11-17 12:44:00,62.1,34.8,30.05,South,169,0.0,-999.0,36,0.04,,,0.04,66,WeatherHawk,2013-11-17 17:44:00,
2013-11-17 12:49:00,62.2,34.9,30.04,East,90,3.0,-999.0,36,0.04,,,0.04,54,WeatherHawk,2013-11-17 17:49:00,
2013-11-17 12:54:00,62.5,33.8,30.04,ESE,120,2.0,-999.0,34,0.04,,,0.04,61,WeatherHawk,2013-11-17 17:54:00,
2013-11-17 12:59:00,62.1,34.8,30.04,SSE,166,1.0,-999.0,36,0.04,,,0.04,81,WeatherHawk,2013-11-17 17:59:00,
2013-11-17 13:04:00,62.5,35.2,30.03,ESE,102,3.0,-999.0,36,0.04,,,0.04,87,WeatherHawk,2013-11-17 18:04:00,
2013-11-17 13:09:00,62.5,34.5,30.03,SSE,153,0.0,-999.0,35,0.04,,,0.04,96,WeatherHawk,2013-11-17 18:09:00,
2013-11-17 13:14:00,62.4,35.1,30.02,SE,137,0.0,-999.0,36,0.04,,,0.04,68,WeatherHawk,2013-11-17 18:14:00,
2013-11-17 13:19:00,62.7,33.9,30.03,ESE,109,1.0,-999.0,34,0.04,,,0.04,47,WeatherHawk,2013-11-17 18:19:00,
2013-11-17 13:24:00,62.3,35.0,30.01,SSE,167,0.0,-999.0,36,0.04,,,0.04,42,WeatherHawk,2013-11-17 18:24:00,
2013-11-17 13:29:00,62.2,35.6,30.01,SE,134,0.0,-999.0,37,0.04,,,0.04,37,WeatherHawk,2013-11-17 18:29:00,
2013-11-17 13:34:00,62.4,34.4,30.00,NNE,24,0.0,-999.0,35,0.04,,,0.04,27,WeatherHawk,2013-11-17 18:34:00,
2013-11-17 13:39:00,62.1,35.5,30.01,SE,140,0.0,-999.0,37,0.04,,,0.04,22,WeatherHawk,2013-11-17 18:39:00,
2013-11-17 13:44:00,60.6,38.0,30.02,SSE,148,0.0,-999.0,43,0.08,,,0.08,18,WeatherHawk,2013-11-17 18:44:00,
2013-11-17 13:49:00,60.7,40.3,30.01,SE,137,3.0,-999.0,47,0.08,,,0.12,18,WeatherHawk,2013-11-17 18:49:00,
2013-11-17 13:54:00,60.0,40.2,30.04,South,177,5.0,-999.0,48,0.12,,,0.16,11,WeatherHawk,2013-11-17 18:54:00,
2013-11-17 13:59:00,59.9,41.7,30.02,SE,127,7.0,-999.0,51,0.16,,,0.20,7,WeatherHawk,2013-11-17 18:59:00,
2013-11-17 14:04:00,60.3,43.6,30.02,ESE,119,1.0,-999.0,54,0.24,,,0.28,7,WeatherHawk,2013-11-17 19:04:00,
2013-11-17 14:09:00,60.2,41.0,30.02,ESE,103,3.0,-999.0,49,0.28,,,0.31,7,WeatherHawk,2013-11-17 19:09:00,
2013-11-17 14:14:00,60.2,42.0,30.02,WNW,297,0.0,-999.0,51,0.35,,,0.39,7,WeatherHawk,2013-11-17 19:14:00,
2013-11-17 14:19:00,60.1,41.4,30.02,West,260,0.0,-999.0,50,0.39,,,0.43,7,WeatherHawk,2013-11-17 19:19:00,
2013-11-17 14:24:00,59.4,43.2,30.01,NNW,337,0.0,-999.0,55,0.43,,,0.47,15,WeatherHawk,2013-11-17 19:24:00,
2013-11-17 14:29:00,59.0,44.7,29.99,WNW,283,0.0,-999.0,59,0.47,,,0.51,7,WeatherHawk,2013-11-17 19:29:00,
2013-11-17 14:34:00,58.7,46.2,29.98,West,268,0.0,-999.0,63,0.51,,,0.55,11,WeatherHawk,2013-11-17 19:34:00,
2013-11-17 14:40:00,58.8,47.1,29.98,SW,236,0.0,-999.0,65,0.55,,,0.59,20,WeatherHawk,2013-11-17 19:40:00,
2013-11-17 14:49:00,58.8,48.3,29.96,South,178,0.0,-999.0,68,0.59,,,0.63,26,WeatherHawk,2013-11-17 19:49:00,
2013-11-17 14:54:00,59.4,48.4,29.96,WSW,238,0.0,-999.0,67,0.55,,,0.63,73,WeatherHawk,2013-11-17 19:54:00,
2013-11-17 14:59:00,59.4,47.6,29.94,ESE,120,0.0,-999.0,65,0.55,,,0.63,61,WeatherHawk,2013-11-17 19:59:00,
2013-11-17 15:04:00,59.6,47.0,29.94,South,190,0.0,-999.0,63,0.55,,,0.67,46,WeatherHawk,2013-11-17 20:04:00,
2013-11-17 15:09:00,59.8,45.4,29.95,West,275,0.0,-999.0,59,0.47,,,0.67,18,WeatherHawk,2013-11-17 20:09:00,
2013-11-17 15:14:00,59.5,46.0,29.94,NW,304,0.0,-999.0,61,0.43,,,0.67,42,WeatherHawk,2013-11-17 20:14:00,
2013-11-17 15:19:00,59.7,46.7,29.94,WNW,303,0.0,-999.0,62,0.35,,,0.67,32,WeatherHawk,2013-11-17 20:19:00,
2013-11-17 15:24:00,59.3,47.2,29.93,ESE,123,0.0,-999.0,64,0.31,,,0.67,45,WeatherHawk,2013-11-17 20:24:00,
2013-11-17 15:29:00,59.5,47.3,29.92,SSE,151,0.0,-999.0,64,0.24,,,0.67,28,WeatherHawk,2013-11-17 20:29:00,
2013-11-17 15:34:00,59.8,47.1,29.92,SSE,151,0.0,-999.0,63,0.24,,,0.67,30,WeatherHawk,2013-11-17 20:34:00,
2013-11-17 15:39:00,59.2,47.1,29.93,West,259,0.0,-999.0,64,0.20,,,0.67,11,WeatherHawk,2013-11-17 20:39:00,
2013-11-17 15:44:00,58.7,46.9,29.92,SSE,160,0.0,-999.0,65,0.12,,,0.67,19,WeatherHawk,2013-11-17 20:44:00,
2013-11-17 15:49:00,58.7,47.8,29.92,SSE,160,0.0,-999.0,67,0.08,,,0.67,14,WeatherHawk,2013-11-17 20:49:00,
2013-11-17 15:55:00,58.6,48.1,29.93,WNW,293,3.0,-999.0,68,0.08,,,0.67,13,WeatherHawk,2013-11-17 20:55:00,
2013-11-17 16:04:00,58.4,49.4,29.92,NNW,348,0.0,-999.0,72,0.04,,,0.67,3,WeatherHawk,2013-11-17 21:04:00,
2013-11-17 16:09:00,58.4,49.5,29.91,NNW,328,0.0,-999.0,72,0.04,,,0.67,23,WeatherHawk,2013-11-17 21:09:00,
2013-11-17 16:14:00,58.7,50.1,29.91,NNW,328,0.0,-999.0,73,0.04,,,0.71,31,WeatherHawk,2013-11-17 21:14:00,
2013-11-17 16:19:00,58.6,50.0,29.91,SSW,197,0.0,-999.0,73,0.04,,,0.71,25,WeatherHawk,2013-11-17 21:19:00,
2013-11-17 16:24:00,58.8,50.2,29.92,SSE,155,0.0,-999.0,73,0.04,,,0.71,9,WeatherHawk,2013-11-17 21:24:00,
2013-11-17 16:29:00,58.7,49.7,29.91,SSE,155,0.0,-999.0,72,0.04,,,0.71,18,WeatherHawk,2013-11-17 21:29:00,
2013-11-17 16:34:00,58.9,49.9,29.91,ESE,117,0.0,-999.0,72,0.04,,,0.71,20,WeatherHawk,2013-11-17 21:34:00,
2013-11-17 16:39:00,59.7,49.9,29.91,South,184,0.0,-999.0,70,0.08,,,0.75,16,WeatherHawk,2013-11-17 21:39:00,
2013-11-17 16:44:00,59.9,48.9,29.91,ESE,117,0.0,-999.0,67,0.08,,,0.75,15,WeatherHawk,2013-11-17 21:44:00,
2013-11-17 16:49:00,60.1,48.3,29.90,SW,223,4.0,-999.0,65,0.08,,,0.75,9,WeatherHawk,2013-11-17 21:49:00,
2013-11-17 16:54:00,59.2,46.6,29.91,South,177,1.0,-999.0,63,0.08,,,0.75,0,WeatherHawk,2013-11-17 21:54:00,
2013-11-17 16:59:00,59.9,47.2,29.90,SSE,147,0.0,-999.0,63,0.08,,,0.75,3,WeatherHawk,2013-11-17 21:59:00,
2013-11-17 17:04:00,59.8,47.2,29.90,SSE,154,6.0,-999.0,63,0.08,,,0.75,1,WeatherHawk,2013-11-17 22:04:00,
2013-11-17 17:09:00,60.2,46.7,29.90,SW,228,0.0,-999.0,61,0.08,,,0.75,1,WeatherHawk,2013-11-17 22:09:00,
2013-11-17 17:14:00,60.5,47.4,29.90,SE,129,5.0,-999.0,62,0.08,,,0.75,1,WeatherHawk,2013-11-17 22:14:00,
2013-11-17 17:19:00,60.2,47.1,29.90,South,173,2.0,-999.0,62,0.08,,,0.75,1,WeatherHawk,2013-11-17 22:19:00,
2013-11-17 17:24:00,60.4,47.3,29.89,South,187,5.0,-999.0,62,0.04,,,0.75,0,WeatherHawk,2013-11-17 22:24:00,
2013-11-17 17:29:00,60.6,47.1,29.89,NW,325,6.0,-999.0,61,0.04,,,0.75,0,WeatherHawk,2013-11-17 22:29:00,
2013-11-17 17:34:00,60.9,46.9,29.88,SE,136,7.0,-999.0,60,0.04,,,0.75,0,WeatherHawk,2013-11-17 22:34:00,
2013-11-17 17:39:00,60.9,46.0,29.88,South,169,6.0,-999.0,58,0.04,,,0.75,0,WeatherHawk,2013-11-17 22:39:00,
2013-11-17 17:44:00,61.1,46.2,29.88,SW,222,7.0,-999.0,58,0.04,,,0.75,0,WeatherHawk,2013-11-17 22:44:00,
2013-11-17 17:49:00,61.0,46.1,29.87,SE,127,3.0,-999.0,58,0.00,,,0.75,0,WeatherHawk,2013-11-17 22:49:00,
2013-11-17 17:54:00,61.4,46.0,29.87,SSW,206,10.0,-999.0,57,0.00,,,0.75,1,WeatherHawk,2013-11-17 22:54:00,
2013-11-17 17:59:00,61.1,45.3,29.88,South,170,2.0,-999.0,56,0.00,,,0.75,0,WeatherHawk,2013-11-17 22:59:00,
2013-11-17 18:04:00,61.7,45.8,29.87,South,173,5.0,-999.0,56,0.00,,,0.75,0,WeatherHawk,2013-11-17 23:04:00,
2013-11-17 18:09:00,61.8,45.9,29.87,SSE,161,6.0,-999.0,56,0.00,,,0.75,0,WeatherHawk,2013-11-17 23:09:00,
2013-11-17 18:14:00,61.7,44.4,29.87,SSE,149,2.0,-999.0,53,0.00,,,0.75,0,WeatherHawk,2013-11-17 23:14:00,
2013-11-17 18:19:00,61.9,44.6,29.85,SW,224,5.0,-999.0,53,0.00,,,0.75,1,WeatherHawk,2013-11-17 23:19:00,
2013-11-17 18:24:00,62.3,44.4,29.86,SE,127,7.0,-999.0,52,0.00,,,0.75,0,WeatherHawk,2013-11-17 23:24:00,
2013-11-17 18:29:00,62.1,44.2,29.86,South,172,4.0,-999.0,52,0.00,,,0.75,0,WeatherHawk,2013-11-17 23:29:00,
2013-11-17 18:34:00,62.4,44.1,29.85,SE,128,6.0,-999.0,51,0.00,,,0.75,1,WeatherHawk,2013-11-17 23:34:00,
2013-11-17 18:39:00,62.2,42.8,29.85,South,187,4.0,-999.0,49,0.00,,,0.75,0,WeatherHawk,2013-11-17 23:39:00,
2013-11-17 18:44:00,62.7,42.2,29.85,SE,126,5.0,-999.0,47,0.00,,,0.75,0,WeatherHawk,2013-11-17 23:44:00,
2013-11-17 18:49:00,63.4,42.2,29.85,South,171,8.0,-999.0,46,0.00,,,0.75,0,WeatherHawk,2013-11-17 23:49:00,
2013-11-17 18:54:00,63.1,42.0,29.85,South,175,8.0,-999.0,46,0.00,,,0.75,0,WeatherHawk,2013-11-17 23:54:00,
2013-11-17 18:59:00,62.7,41.1,29.83,SSW,201,7.0,-999.0,45,0.00,,,0.75,0,WeatherHawk,2013-11-17 23:59:00,
2013-11-17 19:04:00,63.1,40.9,29.84,South,171,4.0,-999.0,44,0.00,,,0.75,0,WeatherHawk,2013-11-18 00:04:00,
2013-11-17 19:09:00,63.0,40.7,29.84,South,177,7.0,-999.0,44,0.00,,,0.75,1,WeatherHawk,2013-11-18 00:09:00,
2013-11-17 19:14:00,63.8,40.9,29.85,SSE,168,11.0,-999.0,43,0.00,,,0.75,0,WeatherHawk,2013-11-18 00:14:00,
2013-11-17 19:19:00,64.2,40.6,29.84,South,178,10.0,-999.0,42,0.00,,,0.75,0,WeatherHawk,2013-11-18 00:19:00,
2013-11-17 19:24:00,64.1,39.9,29.84,South,182,7.0,-999.0,41,0.00,,,0.75,1,WeatherHawk,2013-11-18 00:24:00,
2013-11-17 19:29:00,64.3,40.1,29.83,South,171,8.0,-999.0,41,0.00,,,0.75,0,WeatherHawk,2013-11-18 00:29:00,
2013-11-17 19:34:00,64.7,39.8,29.84,SW,221,10.0,-999.0,40,0.00,,,0.75,0,WeatherHawk,2013-11-18 00:34:00,
2013-11-17 19:39:00,64.6,39.7,29.84,South,179,11.0,-999.0,40,0.00,,,0.75,0,WeatherHawk,2013-11-18 00:39:00,
2013-11-17 19:44:00,64.5,39.6,29.86,South,169,8.0,-999.0,40,0.00,,,0.75,0,WeatherHawk,2013-11-18 00:44:00,
2013-11-17 19:49:00,65.5,40.5,29.84,SSE,159,9.0,-999.0,40,0.00,,,0.75,1,WeatherHawk,2013-11-18 00:49:00,
2013-11-17 19:54:00,65.6,40.7,29.84,SSE,163,11.0,-999.0,40,0.00,,,0.75,0,WeatherHawk,2013-11-18 00:54:00,
2013-11-17 19:59:00,65.1,40.2,29.84,SE,146,8.0,-999.0,40,0.00,,,0.75,0,WeatherHawk,2013-11-18 00:59:00,
2013-11-17 20:04:00,65.1,39.5,29.84,South,177,8.0,-999.0,39,0.00,,,0.75,0,WeatherHawk,2013-11-18 01:04:00,
2013-11-17 20:09:00,65.4,40.5,29.84,South,188,13.0,-999.0,40,0.00,,,0.75,0,WeatherHawk,2013-11-18 01:09:00,
2013-11-17 20:14:00,65.6,41.3,29.83,SSE,156,11.0,-999.0,41,0.00,,,0.75,0,WeatherHawk,2013-11-18 01:14:00,
2013-11-17 20:19:00,64.8,40.6,29.82,SSE,152,9.0,-999.0,41,0.00,,,0.75,0,WeatherHawk,2013-11-18 01:19:00,
2013-11-17 20:24:00,65.1,40.2,29.83,South,187,12.0,-999.0,40,0.00,,,0.75,0,WeatherHawk,2013-11-18 01:24:00,
2013-11-17 20:29:00,65.1,40.1,29.83,South,172,7.0,-999.0,40,0.00,,,0.75,0,WeatherHawk,2013-11-18 01:29:00,
2013-11-17 20:34:00,65.2,40.3,29.84,South,169,10.0,-999.0,40,0.00,,,0.75,0,WeatherHawk,2013-11-18 01:34:00,
2013-11-17 20:39:00,65.6,40.6,29.84,SSW,210,11.0,-999.0,40,0.00,,,0.75,0,WeatherHawk,2013-11-18 01:39:00,
2013-11-17 20:49:00,65.5,41.2,29.85,SE,135,10.0,-999.0,41,0.00,,,0.75,0,WeatherHawk,2013-11-18 01:49:00,
2013-11-17 20:54:00,65.5,40.5,29.85,SSE,158,11.0,-999.0,40,0.00,,,0.75,0,WeatherHawk,2013-11-18 01:54:00,
2013-11-17 21:00:00,65.7,41.4,29.83,SSW,206,7.0,-999.0,41,0.00,,,0.75,0,WeatherHawk,2013-11-18 02:00:00,
2013-11-17 21:09:00,65.7,41.3,29.84,SSE,162,9.0,-999.0,41,0.00,,,0.75,1,WeatherHawk,2013-11-18 02:09:00,
2013-11-17 21:14:00,63.3,32.1,29.89,WNW,284,18.0,-999.0,31,0.00,,,0.75,1,WeatherHawk,2013-11-18 02:14:00,
2013-11-17 21:19:00,57.5,22.9,29.93,NW,324,19.0,-999.0,26,0.00,,,0.75,0,WeatherHawk,2013-11-18 02:19:00,
2013-11-17 21:24:00,52.1,33.0,29.94,SW,231,12.0,-999.0,48,0.12,,,0.87,0,WeatherHawk,2013-11-18 02:24:00,
2013-11-17 21:29:00,54.8,35.5,29.94,WNW,302,10.0,-999.0,48,0.12,,,0.87,0,WeatherHawk,2013-11-18 02:29:00,
2013-11-17 21:34:00,55.3,35.9,29.96,WSW,254,5.0,-999.0,48,0.12,,,0.87,0,WeatherHawk,2013-11-18 02:34:00,
2013-11-17 21:44:00,56.1,33.3,29.94,SSW,212,2.0,-999.0,42,0.12,,,0.87,0,WeatherHawk,2013-11-18 02:44:00,
2013-11-17 21:49:00,56.5,32.4,29.95,SSW,212,4.0,-999.0,40,0.12,,,0.87,1,WeatherHawk,2013-11-18 02:49:00,
2013-11-17 21:54:00,56.2,31.6,29.97,WSW,239,4.0,-999.0,39,0.12,,,0.87,0,WeatherHawk,2013-11-18 02:54:00,
2013-11-17 21:59:00,56.6,30.7,29.97,South,182,6.0,-999.0,37,0.12,,,0.87,0,WeatherHawk,2013-11-18 02:59:00,
2013-11-17 22:04:00,56.8,30.1,29.96,NW,308,5.0,-999.0,36,0.12,,,0.87,0,WeatherHawk,2013-11-18 03:04:00,
2013-11-17 22:09:00,56.9,28.8,29.95,WSW,250,1.0,-999.0,34,0.12,,,0.87,0,WeatherHawk,2013-11-18 03:09:00,
2013-11-17 22:14:00,57.6,27.9,29.96,NNE,18,5.0,-999.0,32,0.12,,,0.87,1,WeatherHawk,2013-11-18 03:14:00,
2013-11-17 22:19:00,57.2,28.3,29.96,WSW,250,4.0,-999.0,33,0.12,,,0.87,0,WeatherHawk,2013-11-18 03:19:00,
2013-11-17 22:24:00,57.0,28.9,29.96,West,279,2.0,-999.0,34,0.12,,,0.87,1,WeatherHawk,2013-11-18 03:24:00,
2013-11-17 22:29:00,56.8,28.7,29.97,SW,222,1.0,-999.0,34,0.12,,,0.87,0,WeatherHawk,2013-11-18 03:29:00,
2013-11-17 22:34:00,56.3,29.0,29.96,WSW,241,0.0,-999.0,35,0.08,,,0.87,0,WeatherHawk,2013-11-18 03:34:00,
2013-11-17 22:39:00,56.3,30.3,29.96,WSW,242,0.0,-999.0,37,0.00,,,0.87,0,WeatherHawk,2013-11-18 03:39:00,
2013-11-17 22:44:00,56.5,29.1,29.97,SW,226,0.0,-999.0,35,0.00,,,0.87,0,WeatherHawk,2013-11-18 03:44:00,
2013-11-17 22:49:00,56.5,29.9,29.98,SW,229,0.0,-999.0,36,0.00,,,0.87,0,WeatherHawk,2013-11-18 03:49:00,
2013-11-17 22:54:00,55.8,29.9,29.98,WSW,246,0.0,-999.0,37,0.00,,,0.87,1,WeatherHawk,2013-11-18 03:54:00,
2013-11-17 22:59:00,56.2,30.3,29.98,SW,233,0.0,-999.0,37,0.00,,,0.87,0,WeatherHawk,2013-11-18 03:59:00,
2013-11-17 23:04:00,56.6,30.0,29.98,WSW,247,2.0,-999.0,36,0.00,,,0.87,0,WeatherHawk,2013-11-18 04:04:00,
2013-11-17 23:09:00,56.8,30.2,29.99,West,269,3.0,-999.0,36,0.00,,,0.87,0,WeatherHawk,2013-11-18 04:09:00,
2013-11-17 23:14:00,56.9,28.9,29.99,West,264,1.0,-999.0,34,0.00,,,0.87,0,WeatherHawk,2013-11-18 04:14:00,
2013-11-17 23:19:00,57.0,29.6,29.99,WSW,257,3.0,-999.0,35,0.00,,,0.87,0,WeatherHawk,2013-11-18 04:19:00,
2013-11-17 23:24:00,56.4,29.8,30.00,NW,306,0.0,-999.0,36,0.00,,,0.87,0,WeatherHawk,2013-11-18 04:24:00,
2013-11-17 23:29:00,55.7,29.8,29.99,SW,232,0.0,-999.0,37,0.00,,,0.87,0,WeatherHawk,2013-11-18 04:29:00,
2013-11-17 23:34:00,56.3,29.7,30.01,West,273,0.0,-999.0,36,0.00,,,0.87,0,WeatherHawk,2013-11-18 04:34:00,
2013-11-17 23:39:00,56.5,30.5,30.01,SSW,208,2.0,-999.0,37,0.00,,,0.87,0,WeatherHawk,2013-11-18 04:39:00,
2013-11-17 23:44:00,56.3,29.7,30.01,South,179,3.0,-999.0,36,0.00,,,0.87,1,WeatherHawk,2013-11-18 04:44:00,
2013-11-17 23:49:00,56.5,30.5,30.01,WSW,246,0.0,-999.0,37,0.00,,,0.87,1,WeatherHawk,2013-11-18 04:49:00,
2013-11-17 23:54:00,56.1,30.2,30.02,West,267,0.0,-999.0,37,0.00,,,0.87,0,WeatherHawk,2013-11-18 04:54:00,
2013-11-17 23:59:00,56.1,30.8,30.01,SW,234,0.0,-999.0,38,0.00,,,0.87,0,WeatherHawk,2013-11-18 04:59:00,